Regional Weather Roundup
Issued by NWS Charleston, SC

Current Version | Previous Version | Graphics & Text | Print | Product List | Glossary On
Versions: 1 2 3 4 5 6 7 8 9 10 11 12 13 14 15 16 17 18 19 20 21 22 23 24 25 26 27 28 29 30 31 32 33 34 35 36 37 38 39 40 41 42 43 44 45 46 47 48 49 50
954
ASUS42 KCHS 220412
RWRCHS

REGIONAL WEATHER ROUNDUP
NATIONAL WEATHER SERVICE CHARLESTON SC
1200 AM EDT MON MAY 22 2017

NOTE: "FAIR" INDICATES FEW OR NO CLOUDS BELOW 12,000 FEET WITH NO
SIGNIFICANT WEATHER AND/OR OBSTRUCTIONS TO VISIBILITY.

NOT ALL STATIONS ARE QUALITY CONTROLLED. USE DATA WITH CAUTION...
ESPECIALLY DEWPOINT OBSERVATIONS.

SCZ027-030-031-034>040-042>050-220500-
...SOUTHEAST SOUTH CAROLINA...

CITY           SKY/WX    TMP DP  RH WIND       PRES   REMARKS
N CHARLESTON   PTCLDY    75  69  81 S9        30.11S
WATERFRONT PRK   N/A     77  72  84 S8        30.09S
JOHNS ISLAND   MOCLDY    77  70  78 S6        30.11S
PINOPOLIS        N/A     75  70  83 CALM      30.03F
MONCKS CORNER  MOCLDY    73  68  83 S5        30.10F
SUMMERVILLE    MOCLDY    72  70  94 CALM      30.11F
BEAUFORT MCAS  TSTM      77  74  90 S3        30.10S
BEAUFORT ARPT  MOCLDY    77  72  83 S5        30.10S
HILTON HEAD IS MOCLDY    79  73  83 S10G18    30.11S
WALTERBORO     CLOUDY    72  70  94 S6        30.10F
ALLENDALE      FAIR      73  72  94 SE7       30.07F

...SOUTHERN MIDLANDS AND PEE DEE...

CITY           SKY/WX    TMP DP  RH WIND       PRES   REMARKS
GEORGETOWN     FAIR      72  68  88 CALM      30.12F
KINGSTREE      CLOUDY    73  66  78 SE7       30.10F
ORANGEBURG     CLOUDY    73  72  96 S7        30.09S
BARNWELL       MOCLDY    75  73  94 CALM      30.09S
AIKEN          FAIR      70  68  94 CALM      30.11F
MANNING        FAIR      75  72  88 S10G20    30.10S
COLUMBIA       CLOUDY    74  71  91 S6        30.06S
SUMTER         MOCLDY    73  71  92 S8        30.05F
FLORENCE       CLOUDY    74  70  87 SE9       30.10F
MYRTLE BEACH   NOT AVBL
N MYRTLE BEACH CLOUDY    76  72  87 SE7       30.11F

$$

GAZ063-065-086>088-099>101-113>116-118-119-134>141-150-220500-
...SOUTHEAST GEORGIA...

CITY           SKY/WX    TMP DP  RH WIND       PRES   REMARKS
SAVANNAH ARPT  MOCLDY    75  71  87 S5        30.10F
HUNTER AAF     NOT AVBL
FORT STEWART   CLOUDY    74  70  89 E3        30.07F
STATESBORO     CLOUDY    76  76 100 S6        30.08F
SYLVANIA       CLOUDY    75  73  96 S3        30.09F
CLAXTON        FAIR     N/A N/A N/A CALM      30.08F

...CSRA...CENTRAL AND FAR SOUTHEAST GEORGIA...

CITY           SKY/WX    TMP DP  RH WIND       PRES   REMARKS
THOMSON        CLOUDY    69  68  94 CALM      30.13S
AUGUSTA-BUSH   MOCLDY    76  71  85 SE3       30.06F
AUGUSTA-DANIEL PTCLDY    77  68  73 SE3       30.08F
SWAINSBORO     FAIR      72  72 100 CALM      30.08F
VIDALIA        CLOUDY    77  72  83 S3        30.08F
EASTMAN        FAIR      70  69  98 CALM      30.11S
HAZLEHURST     FAIR      77  73  85 CALM      30.07F
ALMA           CLOUDY    77  72  84 S9        30.09S
WAYCROSS       CLOUDY    77  77  99 SW10      30.10F
JESUP          FAIR      75  68  78 CALM      30.10F
BAXLEY         FAIR      77  77 100 CALM      30.09S
BRUNSWICK      CLOUDY    77  73  88 SW3       30.11S
SAINT SIMONS   CLOUDY    77  73  87 S5        30.10S

$$

SCZ027-028-034-036>038-045-046-048>050-GAZ119-141-220500-
...LAKE AND SUPPLEMENTAL COASTAL OBSERVATIONS...

STATION/POSITION TIME  TEMP    WIND        PRES    WAVE   SWELL
                       AIR SEA DIR/SP/G            HT/PER HT/PER/DIR
                 (UTC) (F)     (DEG/KT/KT) (MB)    (FT/S) (FT/S/D)
WINYAH BAY       0245   76     160/  6     1020.0
LAKE MURRAY      0320   75     220/ 10/ 12 1017.6R
ACE BASIN NERRS  0245   77     180/  1     1020.0
FORT PULASKI     0348   77 79  190/  5/  9 1019.6F
SAPELO ISLAND    0300   78     170/ 10     1019.0

$$

ANZ835-935-AMZ111-154-330-350-352-354-370-450-454-472-220500-
...C-MAN AND BUOY OBSERVATIONS...

STATION/POSITION TIME  TEMP    WIND        PRES    WAVE   SWELL
                       AIR SEA DIR/SP/G            HT/PER HT/PER/DIR
                 (UTC) (F)     (DEG/KT/KT) (MB)    (FT/S) (FT/S/D)
BUOY 41004       0350   78 79  180/ 14/ 16 1019.4F   3/ 7   2/150/ 7
BUOY 41008       0250   78 78  160/ 12/ 14 1019.2    2/ 4   2/110/ 8
FOLLY BEACH CMAN 0300   78     170/ 16/ 17 1020.3S
CAPERS NEARSHORE 0308   81 77  190/ 16/ 21 1019.4F
FRIPP NEARSHORE  0308   78 79  170/ 14/ 17 1019.1F


STATION/POSITION TIME  TEMP    WIND        PRES    WAVE   SWELL
                       AIR SEA DIR/SP/G            HT/PER HT/PER/DIR
                 (UTC) (F)     (DEG/KT/KT) (MB)    (FT/S) (FT/S/D)
5E ST. MARYS GA  0330      79                N/A     2/ 4
FRYING PAN BUOY  0350   76 78  120/ 10/ 12 1019.8F   3/ 8   3/110/ 8
BUOY 41025       0350   76 79  120/ 16/ 17 1020.3F   5/ 8   3/ 50/ 8
CAPE LOOKOUT NC  0300   72      80/  7/  8 1020.5F
BUOY 41002       0350   76 78  170/  4/  6 1020.7F   3/ 8   3/ 20/ 8
BUOY 41010       0350   77 79  130/ 10/ 12 1020.0S   2/ 8   2/ 90/ 8
ST AUGUSTINE FL  0400   77 81  210/  6/  7 1020.6R


$$




USA.gov is the U.S. government's official web portal to all federal, state and local government web resources and services.